Kezdőlap
METAR-TAF:

METAR-TAF

Repülőterek :

Offutt Air Force Base

Omaha, Nebraska, Amerikai Egyesült Államok

földrajzi szélesség: 41-07N, földrajzi hosszúság: 095-54W, magasság: 319 m

Jelenlegi meteorológiai megfigyelések

A jelentés 46 perccel ezelõtt készült, 01:56 UTC
Dél-délnyugati szél 6 kt
Hőmérséklet 0°C
Páratartalom 37%
Légköri nyomás 1019 hPa
Látótávolság: 16.1 km
Borult 18000 lábon

METAR: KOFF 270156Z 21006KT 10SM OVC180 M00/M13 A3010 RMK AO2A SLP216 T10041127 PWINO PNO FZRANO TSNO VISNO RWY12 CHINO RWY12 $

Idő: 20:42 (02:42 UTC)


TAF: hiányzik

Meteorológiai megfigyelések és előrejelzések több, mint 4000 repülőtéren (METAR és TAF jelentéseket).

A térképen piros és sárga pontok jelzik az elérhető meteorológiai állomásokat.

Mozgassa az egeret a pont fölött, hogy megjelenjen az állomás neve.

Azután kattintson az időjárási megfigyelések és előrejelzések megtekintéséhez.

A térkép megváltoztatása: kattintson a fekete keresztel jelölt zöld gombra ráközelítéshez, a vonallal jelölt zöld gombra távolításhoz, vagy a zöld nyilakra a szomszédos térképek eléréséhez.


METAR-TAF: